Torna al catalogo

YAOGAN 14

AttivoMilitareSSO
NORAD 38257·PAYLOAD·🇨🇳 China

Lanciato May 10, 2012 da Taiyuan Satellite Launch Center

Loading…

Prossimi Passaggi (prossime 24 ore)

TLE

AggiornatoSource: Space-Track

Epoca: Sep 14, 2026, 14:14 UTC

1 38257U 12021A   26257.59325095  .00005080  00000-0  18396-3 0  9994
2 38257  97.3156  33.1945 0003945 211.0366 149.0642 15.28827242799476

Traccia YAOGAN 14 in tempo reale con AllMySat

Download on the App Store